Wind_Speed
30 30 30 30 30 30 32 33 35 33 32 31 32 32 33 33 33 34 35 35 35 36 36 36 36 36 37 37 37 38 40 41 41 43 43 44 45 46 47 48 48 48 49 50
32 31 32 32 31 32 33 33 34 34 33 31 32 33 34 34 34 35 35 36 36 37 36 36 36 36 37 38 39 39 39 39 40 41 42 42 44 45 46 47 47 48 49 50
34 32 33 32 31 32 33 34 34 34 33 32 32 33 34 34 34 35 35 36 36 36 36 36 36 36 37 38 39 40 39 39 39 41 42 42 43 44 45 47 47 47 47 48
35 34 34 33 33 33 34 34 34 34 33 32 33 33 33 34 34 35 35 36 36 36 36 36 36 37 37 38 39 39 39 39 40 42 42 43 43 44 45 46 48 48 48 47
36 36 35 33 33 35 35 33 33 33 33 33 34 34 33 34 35 35 36 35 35 35 36 36 36 37 37 38 38 39 39 40 41 41 42 43 43 43 44 44 45 46 47 47
36 36 36 34 34 35 36 34 34 34 33 34 35 35 34 34 34 35 35 35 35 35 35 36 37 37 37 37 37 38 39 40 41 41 41 41 41 42 43 43 43 43 44 45
35 36 36 34 35 35 36 36 36 36 35 35 35 35 35 35 35 35 35 35 35 35 35 36 36 36 36 36 36 37 37 38 39 39 39 40 40 41 42 42 42 43 43 44
35 36 35 34 35 35 36 36 36 36 36 36 35 34 34 35 34 34 34 34 34 34 34 35 35 35 35 34 34 34 34 35 36 37 38 38 39 39 40 41 41 42 42 43
36 35 35 35 35 36 36 36 36 37 37 37 36 35 35 35 34 34 34 34 34 34 34 34 35 35 34 34 33 33 33 34 34 35 36 36 37 39 40 40 41 42 43 43
36 35 36 36 35 36 36 36 36 36 36 37 36 35 35 35 35 35 35 35 35 35 35 34 34 35 35 34 34 33 33 33 32 32 33 34 35 36 37 39 40 41 42 43
37 36 36 36 36 36 37 37 37 36 36 36 36 35 36 36 36 35 36 36 35 35 35 34 35 35 35 35 34 34 34 33 33 32 32 33 34 35 37 38 39 41 42 43
37 37 37 36 36 37 37 37 36 37 36 36 36 36 36 36 36 36 36 35 35 35 34 34 35 35 35 35 34 34 34 34 33 33 33 34 34 35 36 37 38 39 41 41
38 37 37 37 37 37 37 36 36 36 36 36 36 36 36 36 36 36 36 35 35 34 34 34 34 34 34 34 34 34 34 34 34 34 34 34 35 35 36 37 38 39 39 40
38 37 37 37 37 38 37 37 36 36 36 36 36 36 35 35 35 35 35 35 34 34 34 33 33 33 33 33 33 33 33 33 33 33 33 34 35 35 36 37 37 38 38 39
37 37 37 37 37 37 37 36 36 36 36 36 36 35 35 35 35 35 35 34 34 33 33 33 33 32 32 32 32 32 32 32 32 32 32 32 33 34 35 35 36 36 36 37
36 36 36 37 37 37 37 36 35 35 35 35 35 34 34 34 34 34 34 33 33 32 32 32 31 30 30 31 31 31 30 30 30 30 31 31 32 32 32 32 32 32 33 34
34 34 34 35 36 36 36 36 35 34 34 34 33 33 33 33 33 33 32 32 31 31 30 30 29 28 28 29 29 29 29 29 29 29 30 30 30 30 30 30 30 30 31 31
33 33 33 34 35 35 36 35 34 33 33 32 32 31 31 32 32 31 31 31 30 29 29 28 28 28 27 27 26 27 27 27 28 28 28 28 29 29 28 28 28 28 28 28
32 33 33 34 34 34 34 33 33 32 32 31 31 31 31 31 30 30 30 30 29 28 27 27 27 26 26 26 26 26 25 26 26 27 27 27 27 27 26 26 26 27 27 27
31 32 32 33 33 33 32 32 32 32 32 31 31 30 30 29 29 29 29 29 28 27 26 26 25 25 25 25 25 25 25 25 26 26 26 26 26 26 26 26 26 26 26 27
31 31 31 32 33 33 32 32 32 32 31 31 30 29 29 29 28 28 28 28 27 26 25 25 25 24 24 25 25 25 26 26 26 26 26 25 25 25 25 25 25 26 26 26
31 31 32 32 32 32 31 30 30 30 30 30 29 29 28 28 28 28 27 27 26 26 25 25 25 25 25 25 25 25 25 26 26 26 26 25 25 24 24 24 24 25 25 26
31 31 32 32 32 31 31 30 30 30 30 29 29 29 28 28 27 27 26 26 26 25 25 25 25 24 24 24 24 24 25 25 25 25 24 24 24 24 23 23 23 23 24 24
31 32 32 31 31 31 30 30 29 28 28 28 28 28 27 27 27 27 26 26 26 25 25 24 24 24 23 24 24 24 24 24 23 23 23 23 23 23 23 22 22 22 23 23
31 31 31 30 30 29 29 29 28 27 27 27 27 27 27 27 27 26 26 25 25 24 24 23 23 23 23 23 23 23 23 22 22 21 21 21 22 22 22 22 23 23 23 22
31 30 30 29 28 28 28 27 26 26 26 26 26 27 27 27 27 26 25 25 25 24 23 23 23 23 22 22 22 22 22 21 21 20 20 20 20 21 21 21 21 21 21 21
30 29 29 28 27 27 27 26 25 26 26 26 27 27 27 27 27 26 26 26 25 24 23 22 21 21 21 21 21 20 20 20 19 19 19 19 19 19 19 19 20 20 20 20
Wind_Direction
300 299 298 296 296 296 296 297 298 299 298 295 292 292 291 288 287 285 284 284 283 280 279 278 276 275 273 272 270 269 267 265 263 262 262 260 259 258 256 255 254 254 254 255
298 296 296 296 296 295 296 298 298 297 297 296 294 292 291 289 287 284 283 284 283 280 279 278 277 275 274 273 272 271 268 265 264 264 263 262 262 260 257 256 255 256 256 256
300 297 295 295 296 296 296 297 297 296 296 294 295 292 290 289 287 285 283 284 283 280 279 278 277 275 274 274 273 270 267 265 264 264 264 264 263 262 259 257 256 256 257 256
299 298 295 297 297 297 298 298 297 296 296 295 295 294 292 290 287 286 285 284 282 281 280 279 278 278 276 276 273 270 267 266 266 264 264 264 264 263 262 260 257 256 256 257
299 298 297 297 297 298 299 299 298 297 296 294 294 294 292 290 288 286 286 285 283 281 281 281 280 280 279 277 274 271 269 267 266 266 265 264 263 263 262 260 258 257 256 256
300 299 299 299 297 297 298 299 299 297 295 294 294 293 291 289 288 288 287 286 284 283 283 282 281 281 280 278 276 274 273 271 269 267 266 265 263 262 262 261 259 258 258 257
301 300 300 301 300 299 298 299 298 296 295 295 295 293 290 289 289 289 288 287 286 285 285 283 282 281 281 279 277 276 276 274 271 269 267 265 264 263 262 261 260 259 258 257
301 301 302 302 300 299 298 298 298 297 296 295 294 293 291 290 290 290 290 288 287 287 286 285 283 282 280 278 277 277 277 276 273 270 268 266 265 264 263 262 261 260 259 258
299 301 302 302 301 299 298 298 297 297 297 295 293 293 292 291 291 291 290 289 288 289 288 287 284 282 281 278 277 277 277 276 275 273 271 269 266 265 264 263 261 260 260 259
296 298 299 300 300 300 300 298 297 297 297 296 293 292 291 292 292 291 291 290 289 289 289 288 286 283 281 279 278 277 277 276 275 273 271 269 267 266 265 265 263 263 263 261
295 298 298 299 300 300 299 298 297 297 296 295 293 293 293 293 294 293 293 292 290 289 289 288 287 284 281 280 279 278 277 276 275 275 273 271 268 266 266 266 265 265 265 263
295 296 297 298 299 299 299 298 298 297 296 294 293 293 293 294 294 294 294 293 292 290 289 288 287 286 283 281 279 279 278 276 275 275 274 272 271 269 269 269 268 267 266 265
294 294 294 296 297 298 298 298 298 298 297 295 294 293 293 293 293 294 294 293 292 291 290 289 287 285 283 282 281 279 278 276 275 274 275 274 272 271 270 270 270 269 268 267
293 294 293 294 296 297 298 298 298 297 297 296 295 294 293 293 294 295 295 294 293 291 291 289 287 285 283 282 281 279 279 278 276 275 275 275 273 273 273 272 271 270 269 268
292 292 292 293 295 296 297 297 297 297 297 297 296 294 294 294 294 295 295 295 294 292 291 290 288 286 284 282 281 280 280 280 278 277 277 277 276 276 275 275 273 271 270 269
292 292 292 293 294 296 297 297 297 297 298 298 296 295 294 294 295 295 296 296 296 294 292 290 288 286 284 283 281 281 281 281 281 279 279 279 279 278 277 276 275 273 271 271
293 293 294 296 296 296 297 297 297 297 297 298 297 295 294 294 295 296 296 297 297 295 293 290 288 287 286 284 283 282 281 281 282 282 281 281 280 279 278 277 276 274 273 271
293 294 295 297 297 297 297 297 297 297 297 298 297 297 295 294 295 297 297 297 297 296 294 292 289 288 287 286 285 283 282 282 283 283 283 282 281 279 278 277 276 275 273 272
295 295 297 298 299 299 299 298 298 297 298 298 297 296 295 295 296 297 298 298 298 297 295 292 290 289 288 286 286 285 283 283 284 285 285 284 282 280 279 278 276 275 274 273
297 296 297 299 300 300 299 298 298 298 298 297 296 296 295 295 297 298 298 299 298 297 296 293 291 289 289 287 287 287 286 286 285 286 286 285 284 282 280 279 278 277 276 275
299 298 297 298 299 299 298 298 298 298 298 297 296 295 295 295 297 298 299 299 298 297 296 294 291 289 289 289 289 289 288 288 288 287 286 285 284 284 283 281 280 278 277 277
299 299 299 299 300 300 299 299 299 299 299 298 297 296 296 296 297 298 299 298 298 297 295 293 292 291 290 290 291 290 290 290 290 289 287 286 286 286 286 285 283 281 279 278
299 299 299 299 299 300 299 299 299 299 299 298 298 297 296 296 297 297 297 297 297 296 295 293 292 292 292 291 291 291 291 291 290 288 287 286 285 285 286 285 283 282 281 280
298 298 299 298 298 299 299 298 297 297 297 297 297 297 296 296 296 296 297 297 296 296 295 294 293 292 292 293 292 292 293 292 290 288 287 287 287 286 285 283 283 283 282 282
300 300 300 300 299 299 299 297 296 296 296 296 297 297 297 296 296 296 296 296 296 295 295 294 293 293 293 293 293 293 293 291 290 289 288 288 288 287 286 285 284 284 284 283
300 300 300 301 300 300 299 298 297 297 298 298 297 297 297 297 296 295 295 295 295 295 294 294 294 293 293 293 294 294 294 292 292 291 290 289 289 288 288 287 286 285 285 284
300 301 301 299 299 299 299 298 298 299 300 301 300 299 298 298 296 295 295 294 295 294 293 293 294 294 294 293 294 294 293 292 293 293 293 292 291 290 289 288 287 287 287 286
Height
5594 5591 5588 5585 5583 5580 5577 5574 5570 5569 5566 5564 5561 5559 5557 5555 5553 5551 5550 5548 5546 5545 5543 5542 5541 5540 5540 5539 5539 5539 5539 5539 5540 5540 5541 5542 5542 5543 5544 5546 5547 5549 5551 5554
5587 5584 5580 5578 5576 5573 5569 5566 5563 5560 5558 5556 5552 5550 5548 5545 5543 5542 5540 5538 5536 5534 5533 5532 5530 5530 5529 5528 5528 5527 5527 5527 5527 5528 5528 5529 5529 5530 5531 5532 5534 5536 5538 5540
5579 5576 5573 5571 5569 5565 5562 5559 5555 5551 5550 5547 5544 5541 5539 5536 5534 5532 5530 5528 5526 5524 5523 5521 5520 5519 5518 5517 5516 5515 5515 5515 5516 5516 5516 5517 5517 5517 5518 5519 5521 5522 5524 5526
5569 5568 5564 5566 5561 5557 5553 5551 5547 5543 5541 5538 5535 5533 5530 5527 5525 5523 5521 5518 5516 5514 5512 5511 5509 5508 5507 5505 5504 5504 5503 5503 5504 5504 5504 5504 5504 5505 5505 5506 5508 5509 5511 5513
5561 5557 5555 5556 5552 5547 5544 5542 5539 5535 5532 5529 5526 5524 5522 5518 5515 5513 5511 5508 5506 5504 5502 5500 5498 5497 5496 5494 5493 5492 5492 5492 5491 5491 5491 5491 5492 5492 5492 5493 5494 5496 5497 5499
5553 5548 5546 5548 5543 5538 5536 5533 5531 5527 5523 5520 5517 5515 5514 5509 5506 5503 5500 5498 5495 5493 5491 5489 5487 5486 5484 5483 5481 5480 5480 5479 5478 5478 5478 5478 5479 5479 5479 5480 5481 5483 5484 5485
5545 5540 5538 5538 5534 5530 5528 5526 5521 5518 5514 5511 5508 5505 5503 5499 5496 5493 5490 5488 5485 5483 5481 5478 5476 5474 5473 5471 5470 5469 5468 5466 5465 5465 5465 5465 5466 5466 5467 5467 5468 5470 5471 5473
5537 5533 5533 5529 5524 5521 5518 5514 5511 5508 5504 5501 5498 5495 5492 5489 5486 5483 5480 5478 5475 5473 5470 5468 5465 5464 5462 5461 5459 5458 5456 5455 5453 5453 5452 5452 5453 5453 5453 5454 5455 5457 5458 5459
5530 5528 5523 5519 5515 5511 5508 5505 5501 5498 5495 5491 5488 5485 5483 5480 5477 5474 5471 5468 5465 5463 5460 5458 5455 5453 5451 5450 5448 5447 5446 5444 5442 5441 5440 5440 5440 5440 5441 5442 5443 5444 5445 5446
5520 5518 5514 5510 5506 5502 5498 5494 5491 5488 5484 5481 5478 5476 5473 5470 5467 5464 5461 5458 5455 5453 5450 5447 5445 5443 5441 5439 5438 5437 5435 5434 5432 5431 5429 5429 5428 5429 5429 5430 5430 5431 5432 5433
5510 5508 5504 5501 5497 5493 5489 5485 5482 5478 5474 5471 5468 5466 5463 5460 5458 5455 5451 5448 5445 5442 5440 5437 5435 5432 5430 5429 5428 5427 5425 5424 5422 5420 5419 5418 5418 5418 5418 5418 5418 5419 5419 5420
5501 5499 5494 5492 5488 5484 5479 5476 5472 5468 5465 5462 5458 5456 5453 5450 5447 5444 5441 5438 5435 5432 5429 5427 5424 5422 5420 5418 5417 5416 5415 5413 5412 5410 5409 5408 5407 5407 5406 5406 5406 5406 5406 5407
5491 5488 5484 5481 5478 5474 5470 5466 5462 5458 5455 5452 5449 5446 5443 5440 5437 5434 5430 5427 5424 5421 5419 5416 5414 5411 5409 5408 5406 5405 5404 5403 5401 5400 5399 5397 5396 5396 5396 5395 5394 5394 5394 5394
5481 5478 5474 5471 5468 5464 5460 5456 5452 5448 5445 5442 5439 5436 5433 5430 5427 5423 5420 5417 5414 5411 5408 5406 5404 5401 5399 5397 5396 5395 5393 5392 5391 5389 5388 5387 5386 5385 5384 5384 5384 5383 5382 5382
5470 5467 5464 5460 5457 5453 5449 5445 5442 5438 5435 5432 5429 5426 5423 5420 5417 5414 5410 5407 5404 5401 5398 5396 5393 5391 5389 5387 5386 5384 5383 5382 5380 5379 5377 5376 5375 5374 5373 5373 5372 5372 5371 5371
5459 5456 5453 5450 5447 5443 5439 5435 5432 5429 5425 5422 5419 5416 5413 5410 5407 5404 5401 5397 5394 5391 5388 5386 5383 5381 5379 5377 5376 5375 5373 5372 5370 5369 5368 5366 5365 5364 5363 5362 5361 5361 5360 5360
5448 5446 5443 5440 5437 5433 5429 5426 5422 5419 5416 5413 5409 5406 5403 5400 5397 5394 5391 5388 5385 5382 5379 5376 5374 5372 5370 5368 5367 5365 5364 5363 5361 5360 5358 5357 5356 5354 5353 5352 5351 5351 5350 5349
5438 5435 5433 5429 5426 5422 5419 5416 5412 5409 5406 5403 5400 5397 5394 5391 5388 5385 5382 5379 5376 5373 5370 5367 5365 5363 5361 5360 5358 5357 5355 5354 5352 5351 5349 5348 5346 5345 5344 5343 5342 5341 5341 5340
5429 5427 5424 5420 5417 5413 5410 5406 5403 5400 5397 5394 5391 5388 5385 5382 5379 5376 5373 5370 5367 5365 5362 5359 5357 5355 5353 5351 5350 5349 5347 5345 5344 5343 5341 5339 5338 5337 5335 5334 5334 5333 5332 5332
5420 5417 5414 5411 5408 5404 5401 5398 5394 5391 5388 5385 5382 5379 5376 5374 5371 5368 5365 5362 5359 5356 5354 5351 5349 5347 5345 5344 5342 5341 5339 5337 5336 5334 5333 5331 5330 5328 5327 5326 5325 5325 5324 5323
5411 5408 5405 5402 5398 5395 5391 5389 5385 5382 5379 5376 5373 5371 5368 5366 5363 5360 5357 5355 5352 5349 5346 5344 5342 5340 5338 5336 5335 5333 5331 5329 5328 5326 5325 5323 5322 5320 5319 5318 5317 5316 5315 5315
5402 5399 5396 5393 5389 5386 5383 5379 5376 5373 5370 5367 5365 5362 5360 5357 5355 5352 5349 5347 5344 5341 5339 5336 5334 5332 5330 5329 5327 5325 5323 5321 5320 5318 5317 5315 5314 5312 5311 5310 5309 5308 5307 5307
5393 5390 5386 5383 5380 5377 5374 5370 5367 5364 5362 5359 5357 5354 5352 5349 5347 5345 5342 5339 5337 5334 5331 5329 5327 5325 5323 5321 5319 5317 5316 5314 5312 5310 5309 5307 5306 5305 5303 5302 5301 5300 5300 5299
5383 5380 5377 5374 5371 5368 5365 5362 5359 5356 5353 5351 5348 5346 5344 5341 5339 5337 5334 5332 5329 5326 5324 5321 5319 5317 5315 5314 5312 5310 5308 5306 5304 5303 5301 5300 5298 5297 5296 5295 5294 5293 5292 5292
5374 5371 5368 5365 5362 5359 5356 5353 5350 5348 5345 5343 5341 5338 5336 5334 5332 5329 5327 5324 5322 5319 5317 5314 5312 5310 5309 5307 5305 5303 5301 5299 5298 5296 5294 5293 5292 5290 5289 5288 5287 5286 5285 5284
5365 5362 5359 5356 5353 5350 5348 5345 5343 5340 5338 5336 5333 5331 5329 5326 5324 5322 5319 5317 5314 5312 5310 5307 5306 5304 5302 5300 5298 5296 5294 5293 5291 5289 5288 5287 5285 5284 5283 5281 5280 5279 5278 5277
5356 5354 5351 5348 5345 5342 5340 5338 5335 5333 5331 5328 5326 5324 5321 5319 5316 5314 5312 5309 5307 5305 5303 5301 5299 5297 5295 5294 5292 5290 5288 5287 5285 5283 5282 5280 5279 5277 5276 5275 5274 5272 5271 5270